User: anonymous
Location: Black Swamp Observatory
(41.3920°N, 84.1250°W)
Time: 06:08:51
(UTC-04:00)
Language:

MaSat-1 - Orbit

View from above orbital plane
View from above orbital plane
View from above satellite
View from above satellite

Ground track
Ground track

The orbit data is extracted from the following two-line orbital elements,

1 38081U 12006E   14233.20547506  .00065677  45417-5  66434-3 0  3257
2 38081 069.4547 178.1862 0337258 260.5214 184.6106 15.18195815133319
Epoch (UTC): 21 August 2014 04:55:53
Eccentricity: 0.0337258
inclination: 69.4547°
perigee height: 279 km
apogee height: 743 km
right ascension of ascending node: 178.1862°
argument of perigee: 260.5214°
revolutions per day: 15.18195815
mean anomaly at epoch: 184.6106°
orbit number at epoch: 13331

The dashed part of the orbit path shows where the satellite is in the earth's shadow,  

DLR